Zurück zum Katalog

DELTA 1 DEB

LostUNKNOWN
NORAD 28662·DEBRIS·🇺🇸 United States

Gestartet Nov 6, 1965 von Cape Canaveral Space Force Station

Loading…

Nächste Überflüge (nächste 24 Stunden)

TLE

VeraltetSource: Space-Track

Epoche: Jul 4, 2026, 00:37 UTC

1 28662U 65089G   26185.02620731  .00001279  00000-0  49605-2 0  9990
2 28662  59.3956 284.3796 0746080 163.5330  13.0679 12.25200457983899

Verfolge DELTA 1 DEB in Echtzeit mit AllMySat

Download on the App Store